sat.trackr.live / text

‹ back to catalog

YAOGAN-9 01C

NORAD 36415 · 2010-009C

PAYLOAD ACTIVE UNKNOWN

§ Identity

Operator
Country
PRC
Launch date
2010-03-05
Launch site
JSC
Launch vehicle
Mass (kg)
RCS (m²)
2.66

External: N2YO · Heavens-Above · Gunter

§ Orbital elements

Epoch: 2026-09-09T23:09:59.387616Z

Period
107.01 min
Inclination
63.3638°
Eccentricity
0.0546286
Mean motion
13.45725009 rev/d
Perigee alt
680.2 km
Apogee alt
1,495.9 km
Semi-major
7,466.2 km
B*
7.0692e-5
RAAN
138.9529°
Arg perigee
21.9072°
Mean anomaly
340.4368°
Rev number
81,131

§ Raw data

YAOGAN-9 01C1 36415U 10009C   26252.96527069  .00000011  00000+0  70692-4 0  99992 36415  63.3638 138.9529 0546286  21.9072 340.4368 13.45725009811317

JSON: /api/v1/satellites/36415 · /tle

For live sub-satellite position, see the globe view (requires WebGL).

§ Visibility from observer

Set your observer location to see the next 7 days of passes ≥ 10°. The values pass through the URL so the page stays shareable.

No JS? Fill the form by hand. The geolocation button needs JavaScript.